EDT,Max TemperatureF,Mean TemperatureF,Min TemperatureF,Max Dew PointF,MeanDew PointF,Min DewpointF,Max Humidity, Mean Humidity, Min Humidity, Max Sea Level PressureIn, Mean Sea Level PressureIn, Min Sea Level PressureIn, Max VisibilityMiles, Mean VisibilityMiles, Min VisibilityMiles, Max Wind SpeedMPH, Mean Wind SpeedMPH, Max Gust SpeedMPH,PrecipitationIn, CloudCover, Events, WindDirDegrees
2012-9-1,91,81,71,81,75,72,100,86,52,30.17,30.12,30.05,10,9,5,8,4,,0.00,1,,246
2012-9-2,93,83,73,79,77,73,100,86,56,30.08,30.03,29.96,10,10,10,13,5,,0.00,1,,227
2012-9-3,89,81,71,79,75,70,100,87,62,30.07,30.03,30.00,10,10,7,14,5,18,0.00,1,,206
2012-9-4,86,78,69,77,73,70,100,81,58,30.05,30.01,29.96,10,10,10,12,5,16,0.00,1,,173
2012-9-5,89,80,71,79,73,70,100,84,55,30.01,29.96,29.93,10,10,7,13,4,17,0.00,1,,199
2012-9-6,89,80,71,79,75,72,100,85,55,30.00,29.96,29.91,10,10,7,10,3,17,0.00,2,,234
2012-9-7,86,78,71,79,76,72,100,94,70,29.97,29.93,29.88,10,10,2,12,3,,0.17,3,Rain-Thunderstorm,199
2012-9-8,87,79,71,79,76,72,100,89,66,29.88,29.84,29.77,10,9,5,17,4,24,0.00,1,Rain,212
2012-9-9,80,74,68,75,71,64,100,88,70,29.98,29.87,29.78,10,10,5,12,4,,0.00,5,Rain-Thunderstorm,331
2012-9-10,82,71,60,64,60,54,100,77,37,30.15,30.05,29.98,10,10,10,12,2,,0.00,0,,3
2012-9-11,80,70,59,66,59,54,100,75,39,30.28,30.23,30.15,10,10,10,13,3,17,0.00,0,,63
2012-9-12,80,68,57,68,61,57,100,77,51,30.33,30.28,30.25,10,10,10,14,3,18,0.00,0,,51
2012-9-13,82,73,64,68,66,63,100,85,54,30.29,30.24,30.21,10,10,10,13,7,18,0.00,2,,35
2012-9-14,84,74,64,72,68,64,100,83,58,30.20,30.16,30.13,10,10,7,9,4,,0.00,1,,50
2012-9-15,86,75,64,73,69,64,100,85,58,30.17,30.13,30.10,10,10,5,13,3,16,0.00,1,,96
2012-9-16,84,74,64,72,68,64,100,84,58,30.14,30.10,30.06,10,10,10,10,2,,0.00,1,,117
2012-9-17,86,75,64,75,71,64,100,88,62,30.09,30.04,29.98,10,10,7,13,2,20,0.05,2,Rain,154
2012-9-18,84,78,71,79,74,70,100,92,74,29.97,29.86,29.77,10,10,7,24,9,36,0.22,3,Rain-Thunderstorm,189
2012-9-19,80,72,64,73,69,63,100,92,78,30.10,29.97,29.86,10,10,10,14,3,18,0.00,5,,355
2012-9-20,77,70,62,68,64,61,100,84,65,30.14,30.09,30.05,10,10,10,8,5,,0.00,3,,22
2012-9-21,80,70,59,66,63,59,100,78,48,30.10,30.06,30.03,10,10,10,9,3,,0.00,0,,77
2012-9-22,86,73,60,70,67,61,100,84,51,30.07,30.02,29.98,10,10,10,12,2,,0.00,0,,197
2012-9-23,80,68,57,70,62,55,100,79,42,30.10,30.04,29.99,10,10,7,13,5,18,0.00,0,,320
2012-9-24,77,64,51,63,55,46,100,76,36,30.20,30.15,30.09,10,10,10,14,4,23,0.00,0,,54
2012-9-25,78,64,50,64,58,50,100,82,51,30.24,30.21,30.17,10,10,10,10,2,,0.00,1,,82
2012-9-26,80,68,55,68,64,55,100,86,58,30.24,30.20,30.17,10,10,10,12,2,,0.00,1,,100
2012-9-27,84,70,55,70,63,55,100,83,48,30.22,30.17,30.11,10,10,3,12,2,16,0.00,0,,50
2012-9-28,84,72,60,72,67,61,100,86,51,30.13,30.08,30.01,10,10,7,8,1,,0.00,1,,234
2012-9-29,84,74,64,73,68,64,100,91,58,30.04,29.96,29.88,10,8,1,24,2,30,1.25,2,Rain-Thunderstorm,254
2012-9-30,73,68,62,72,68,63,100,100,94,29.92,29.88,29.86,10,8,2,7,2,,0.02,6,Rain,30